sat.trackr.live / text

‹ back to catalog

STARLINK-36802

NORAD 67985 · 2026-038AA

PAYLOAD ACTIVE UNKNOWN

§ Identity

Operator
Country
US
Launch date
2026-02-25
Launch site
AFWTR
Launch vehicle
Mass (kg)
RCS (m²)

Purposes: comms

External: N2YO · Heavens-Above · Gunter

§ Orbital elements

Epoch: 2026-09-19T22:36:08.118432Z

Period
93.91 min
Inclination
97.2835°
Eccentricity
0.0001725
Mean motion
15.33451844 rev/d
Perigee alt
464.3 km
Apogee alt
466.7 km
Semi-major
6,843.7 km
B*
2.9848e-4
RAAN
272.1417°
Arg perigee
114.5085°
Mean anomaly
245.6338°
Rev number
3,306

§ Raw data

STARLINK-368021 67985U 26038AA  26262.94176063  .00009575  00000+0  29848-3 0  99972 67985  97.2835 272.1417 0001725 114.5085 245.6338 15.33451844 33065

JSON: /api/v1/satellites/67985 · /tle

For live sub-satellite position, see the globe view (requires WebGL).

§ Visibility from observer

Set your observer location to see the next 7 days of passes ≥ 10°. The values pass through the URL so the page stays shareable.

No JS? Fill the form by hand. The geolocation button needs JavaScript.